Shaw AFB, SC

12:48 PM EDT on March 28, 2017 (GMT -0400)
Shaw Air Force Base

Weather History for KSSC - January, 2014

Change the Weather History Date:

Wednesday, January 29, 2014

  Actual Average Record
Temperature  
Mean Temperature 26 °F -  
Max Temperature 29 °F 53 °F 80 °F (2002)
Min Temperature 19 °F 33 °F 19 °F (2014)
Degree Days  
Heating Degree Days 39    
Moisture  
Dew Point 18 °F    
Average Humidity 78    
Maximum Humidity 93    
Minimum Humidity 40    
Precipitation  
Precipitation 0.05 in - - ()
Sea Level Pressure  
Sea Level Pressure 30.22 in    
Wind  
Wind Speed 9 mph (North)    
Max Wind Speed 15 mph    
Max Gust Speed -    
Visibility 8 miles    
Events Snow    
Averages and records for this station are not official NWS values.
T = Trace of Precipitation, MM = Missing Value Source: NWS Daily Summary

Daily Weather History Graph

Daily Weather History Graph

Search for Another Location

Airport or City:

Trip Planner

Search our weather history database for the weather conditions in past years. The results will help you decide how hot, cold, wet, or windy it might be!

Date:

Astronomy

Jan. 29, 2014 Rise Set
Actual Time 7:20 AM EST 5:49 PM EST
Civil Twilight 6:54 AM EST 6:15 PM EST
Nautical Twilight 6:24 AM EST 6:46 PM EST
Astronomical Twilight 5:54 AM EST 7:15 PM EST
Moon 5:55 AM EST (1/29) 4:47 PM EST (1/29)
Length of Visible Light 11h 21m
Length of Day
10h 28m
Waning Crescent, 2% of the Moon is Illuminated
Jan 29
Waning Crescent
Jan 30
New
Feb 6
First Quarter
Feb 14
Full
Feb 22
Last Quarter

Hourly Weather History & Observations

Time (EST) Temp. Windchill Dew Point Humidity Pressure Visibility Wind Dir Wind Speed Gust Speed Precip Events Conditions
12:28 AM 24.8 °F 13.4 °F 21.2 °F 86% 30.16 in 5.0 mi North 12.7 mph - N/A Snow Light Snow
12:33 AM 24.8 °F 12.9 °F 21.2 °F 86% 30.16 in 4.0 mi North 13.8 mph - N/A Snow Light Snow
12:38 AM 24.8 °F 12.9 °F 21.2 °F 86% 30.16 in 2.5 mi North 13.8 mph - N/A Snow Light Snow
12:48 AM 24.8 °F 13.4 °F 21.2 °F 86% 30.15 in 3.0 mi North 12.7 mph - N/A Snow Light Snow
12:53 AM 24.8 °F 14.6 °F 21.2 °F 86% 30.15 in 5.0 mi North 10.4 mph - N/A   Overcast
12:58 AM 24.8 °F 15.3 °F 21.2 °F 86% 30.15 in 8.0 mi NNE 9.2 mph - 0.02 in   Overcast
1:03 AM 24.8 °F 16.1 °F 21.2 °F 86% 30.14 in 10.0 mi North 8.1 mph - N/A   Overcast
1:43 AM 24.8 °F 16.1 °F 21.2 °F 86% 30.15 in 9.0 mi North 8.1 mph - N/A Snow Light Snow
1:53 AM 23.0 °F 13.9 °F 21.2 °F 93% 30.14 in 5.0 mi NNE 8.1 mph - N/A Snow Light Snow
1:58 AM 23.0 °F 13.9 °F 21.2 °F 93% 30.17 in 5.0 mi North 8.1 mph - 0.02 in Snow Light Snow
2:03 AM 23.0 °F 13.9 °F 21.2 °F 93% 30.16 in 6.0 mi North 8.1 mph - N/A Snow Light Snow
2:08 AM 23.0 °F 15.8 °F 21.2 °F 93% 30.14 in 9.0 mi North 5.8 mph - N/A Snow Light Snow
2:13 AM 23.0 °F 14.7 °F 21.2 °F 93% 30.13 in 9.0 mi North 6.9 mph - N/A Snow Light Snow
2:18 AM 23.0 °F 14.7 °F 21.2 °F 93% 30.13 in 7.0 mi NNE 6.9 mph - N/A Snow Light Snow
2:23 AM 23.0 °F 15.8 °F 21.2 °F 93% 30.13 in 7.0 mi NNE 5.8 mph - N/A Snow Light Snow
2:28 AM 23.0 °F 15.8 °F 21.2 °F 93% 30.14 in 9.0 mi NNE 5.8 mph - N/A Snow Light Snow
2:33 AM 23.0 °F 13.9 °F 21.2 °F 93% 30.14 in 10.0 mi North 8.1 mph - N/A Snow Light Snow
2:58 AM 23.7 °F 14.7 °F 20.1 °F 86% 30.17 in 10.0 mi North 8.1 mph - 0.01 in   Overcast
3:23 AM 23.0 °F 14.7 °F 21.2 °F 93% 30.17 in 8.0 mi NNW 6.9 mph - N/A Snow Light Snow
3:28 AM 23.0 °F 13.9 °F 21.2 °F 93% 30.17 in 6.0 mi NNW 8.1 mph - N/A Snow Light Snow
3:33 AM 23.0 °F 15.8 °F 21.2 °F 93% 30.17 in 5.0 mi NNW 5.8 mph - N/A Snow Light Snow
3:43 AM 23.0 °F 12.4 °F 21.2 °F 93% 30.15 in 8.0 mi NNW 10.4 mph - N/A   Mostly Cloudy
3:53 AM 23.0 °F 12.4 °F 19.4 °F 86% 30.15 in 9.0 mi North 10.4 mph - N/A   Mostly Cloudy
3:58 AM 23.5 °F 13.0 °F 20.3 °F 87% 30.17 in 7.0 mi North 10.4 mph - 0.00 in   Mostly Cloudy
4:03 AM 23.0 °F 13.9 °F 19.4 °F 86% 30.15 in 7.0 mi North 8.1 mph - N/A   Overcast
4:08 AM 23.0 °F 13.1 °F 19.4 °F 86% 30.17 in 7.0 mi NNW 9.2 mph - N/A   Overcast
4:23 AM 23.0 °F 13.1 °F 19.4 °F 86% 30.18 in 7.0 mi North 9.2 mph - N/A   Overcast
4:33 AM 23.0 °F 13.9 °F 19.4 °F 86% 30.17 in 10.0 mi North 8.1 mph - N/A   Overcast
4:34 AM 23.0 °F 12.4 °F 19.4 °F 86% 30.17 in 10.0 mi North 10.4 mph - N/A   Overcast
4:58 AM 23.5 °F 14.5 °F 19.9 °F 86% 30.19 in 10.0 mi North 8.1 mph - 0.00 in   Overcast
5:58 AM 23.5 °F 15.4 °F 19.4 °F 84% 30.23 in 10.0 mi North 6.9 mph - N/A   Scattered Clouds
6:58 AM 23.5 °F 13.7 °F 18.9 °F 82% 30.22 in 10.0 mi North 9.2 mph - N/A   Partly Cloudy
7:58 AM 23.2 °F 14.1 °F 18.1 °F 81% 30.27 in 10.0 mi North 8.1 mph - N/A   Clear
8:58 AM 23.5 °F 13.7 °F 18.1 °F 80% 30.28 in 10.0 mi NNE 9.2 mph - N/A   Partly Cloudy
9:58 AM 24.8 °F 13.4 °F 18.1 °F 76% 30.33 in 10.0 mi NE 12.7 mph - N/A   Partly Cloudy
10:58 AM 25.5 °F 13.3 °F 18.0 °F 73% 30.34 in 10.0 mi NNE 15.0 mph - N/A   Clear
11:58 AM 26.8 °F 17.1 °F 16.0 °F 64% 30.33 in 10.0 mi North 10.4 mph - N/A   Partly Cloudy
12:58 PM 27.7 °F 18.2 °F 15.1 °F 59% 30.32 in 10.0 mi NNE 10.4 mph - N/A   Clear
1:58 PM 28.2 °F 20.2 °F 13.1 °F 53% 30.29 in 10.0 mi NE 8.1 mph - N/A   Partly Cloudy
2:58 PM 29.3 °F 23.2 °F 12.7 °F 50% 30.32 in 10.0 mi NNE 5.8 mph - N/A   Clear
3:58 PM 29.8 °F 23.0 °F 12.6 °F 49% 30.31 in 10.0 mi North 6.9 mph - N/A   Clear
4:58 PM 29.5 °F 21.1 °F 7.5 °F 40% 30.32 in 10.0 mi North 9.2 mph - N/A   Clear
5:58 PM 28.2 °F 23.1 °F 11.3 °F 49% 30.34 in 10.0 mi North 4.6 mph - N/A   Clear
6:58 PM 28.0 °F 21.7 °F 9.3 °F 45% 30.34 in 10.0 mi North 5.8 mph - N/A   Clear
7:58 PM 27.7 °F 20.4 °F 9.3 °F 46% 30.33 in 10.0 mi North 6.9 mph - N/A   Clear
8:58 PM 25.7 °F 19.0 °F 10.8 °F 53% 30.36 in 10.0 mi NE 5.8 mph - N/A   Clear
9:58 PM 24.1 °F 19.7 °F 12.7 °F 62% 30.37 in 10.0 mi NE 3.5 mph - N/A   Scattered Clouds
10:58 PM 23.9 °F - 9.1 °F 53% 30.36 in 10.0 mi NNE 2.3 mph - N/A   Clear
11:58 PM 19.6 °F - 10.0 °F 66% 30.36 in 10.0 mi ENE 2.3 mph - N/A   Clear